Flag for Brazil Weather past 2 weeks in Rio de Janeiro, Rio de Janeiro, Brazil

73 °F

Partly sunny.

Feels Like: 70 °F
Forecast: 69 / 75 °F
Wind: 3 mph from South

Location: Rio De Janeiro Airport

Current Time: Oct 4, 2015 at 6:42:49 AM

Latest Report: Oct 4, 2015 at 6:00 AM

Visibility: N/A

Pressure: 29.95 "Hg

Humidity: 94%

Dew point: 72 °F

Location of Rio de JaneiroLocation

Historic Weather in Rio de Janeiro — Graph


Rio de Janeiro temperature yesterday

Maximum temperature yesterday: 86 °F (at 12:00 PM)
Minimum temperature yesterday: 75 °F (at 3:00 AM)
Average temperature yesterday: 79 °F

Past Weeks' High & Low Weather Summary

High99 °F (Sep 24, 3:00 PM)100% (Sep 19, 5:00 AM)30.07 "Hg (Sep 19, 5:00 AM)
Low70 °F (Sep 19, 5:00 AM)36% (Sep 25, 2:00 PM)29.71 "Hg (Sep 24, 2:00 PM)
Average77 °F84%29.91 "Hg
* Reported Sep 19 5:00 AM — Oct 4 5:00 AM, Rio de Janeiro, Weather by CustomWeather, © 2015

Note: Actual official high and low records may vary slightly from our data, if they occured in-between our weather recording intervals... More about our weather records


Rio de Janeiro weather history for previous 24 hours

Time TempWeatherWind HumidityBarometerVisibility
5:00 AM
Sun, Oct 4
73 °FPartly sunny.3 mph94%29.92 "Hg6 mi
4:00 AM73 °FPassing clouds.6 mph94%29.92 "Hg6 mi
3:00 AM73 °FPassing clouds.5 mph89%29.92 "Hg6 mi
2:00 AM75 °FPassing clouds.5 mph89%29.92 "Hg5 mi
1:00 AM73 °FPassing clouds.6 mph89%29.95 "Hg5 mi
12:00 AM75 °FPassing clouds.5 mph89%29.98 "Hg5 mi
11:00 PM
Sat, Oct 3
75 °FPartly cloudy.6 mph83%29.98 "Hg5 mi
10:00 PM75 °FPartly cloudy.8 mph89%30.01 "Hg5 mi
9:00 PM75 °FPartly cloudy.9 mph89%29.98 "Hg5 mi
8:00 PM75 °FPartly cloudy.12 mph89%29.98 "Hg5 mi
7:00 PM75 °FPassing clouds.15 mph89%29.95 "Hg6 mi
6:00 PM75 °FPassing clouds.15 mph89%29.89 "Hg6 mi
5:00 PM79 °FPassing clouds.18 mph84%29.86 "HgN/A
4:00 PM86 °FPartly sunny.5 mph62%29.83 "HgN/A
3:00 PM82 °FPartly sunny.3 mph74%29.83 "HgN/A
2:00 PM84 °FPartly sunny.6 mph70%29.83 "HgN/A
1:00 PM82 °FPartly sunny.9 mph79%29.86 "HgN/A
12:00 PM86 °FPartly sunny.8 mph70%29.89 "HgN/A
11:00 AM82 °FOvercast.9 mph70%29.95 "HgN/A
10:00 AM81 °FOvercast.6 mph74%29.95 "Hg4 mi
9:00 AM81 °FBroken clouds.7 mph74%29.95 "Hg4 mi
8:00 AM79 °FBroken clouds.5 mph79%29.95 "Hg4 mi
7:00 AM77 °FPartly sunny.14 mph83%29.89 "Hg4 mi
6:00 AM79 °FPartly sunny.15 mph79%29.86 "Hg5 mi
Weather by CustomWeather, © 2015

See weather overviewHow to use our weather pages